Tracking 33446 objects as of 10-Mar-2026
HD Live streaming from Space Station
objects crossing your sky now

STARLINK-35638

Track STARLINK-35638 now!
10-day predictions
STARLINK-35638 is classified as:


NORAD ID: 66169
Int'l Code: 2025-240Z
Perigee: 481.5 km
Apogee: 483.2 km
Inclination: 53.2 °
Period: 94.1 minutes
Semi major axis: 6853 km
RCS: Unknown
Launch date: October 25, 2025
Source: United States (US)
Launch site: AIR FORCE EASTERN TEST RANGE (AFETR)
Your satellite tracking list
Your tracking list is empty




NASA's NSSDC Master Catalog

Two Line Element Set (TLE):
1 66169U 25240Z   26069.12736484  .00021946  00000-0  75087-3 0  9991
2 66169  53.1597  60.8968 0001253  80.7782 279.3360 15.30201053 22059
Source of the keplerian elements: AFSPC